Change the Weather History Date:

Tuesday, February 19, 2013

  Actual Average Record
Temperature  
Mean Temperature -6 °F -  
Max Temperature 3 °F 25 °F 42 °F (2012)
Min Temperature -14 °F 8 °F -25 °F (2015)
Degree Days  
Heating Degree Days 70    
Moisture  
Dew Point -10 °F    
Average Humidity 71    
Maximum Humidity 84    
Minimum Humidity 56    
Precipitation  
Precipitation 0.00 in - - ()
Sea Level Pressure  
Sea Level Pressure 30.14 in    
Wind  
Wind Speed 16 mph (NW)    
Max Wind Speed 22 mph    
Max Gust Speed 30 mph    
Visibility 9 miles    
Events Snow    
Averages and records for this station are not official NWS values.
T = Trace of Precipitation, MM = Missing Value Source: NWS Daily Summary

Daily Weather History Graph

Daily Weather History Graph

Search for Another Location

Airport or City:

Trip Planner

Search our weather history database for the weather conditions in past years. The results will help you decide how hot, cold, wet, or windy it might be!

Date:

Astronomy

Feb. 19, 2013 Rise Set
Actual Time 7:15 AM CST 5:51 PM CST
Civil Twilight 6:44 AM CST 6:21 PM CST
Nautical Twilight 6:09 AM CST 6:56 PM CST
Astronomical Twilight 5:35 AM CST 7:31 PM CST
Moon 12:12 PM CST (2/19) 2:58 AM CST (2/19)
Length of Visible Light 11h 37m
Length of Day
10h 35m
Waxing Gibbous, 67% of the Moon is Illuminated
Feb 19
Waxing Gibbous
Feb 25
Full
Mar 4
Last Quarter
Mar 11
New
Mar 19
First Quarter

Hourly Weather History & Observations

Time (CST) Temp. Windchill Dew Point Humidity Pressure Visibility Wind Dir Wind Speed Gust Speed Precip Events Conditions
12:13 AM -0.4 °F -22.3 °F -5.8 °F 78% 29.89 in 10.0 mi NW 19.6 mph 26.5 mph N/A   Overcast
12:33 AM 1.4 °F -19.4 °F -5.8 °F 72% 29.90 in 10.0 mi NNW 18.4 mph 23.0 mph N/A   Overcast
12:53 AM 1.4 °F -20.5 °F -5.8 °F 72% 29.90 in 7.0 mi NW 20.7 mph 29.9 mph N/A   Overcast
1:13 AM -0.4 °F -21.7 °F -5.8 °F 78% 29.91 in 10.0 mi NW 18.4 mph 26.5 mph N/A   Overcast
1:33 AM -0.4 °F -22.3 °F -5.8 °F 78% 29.91 in 7.0 mi NNW 19.6 mph 27.6 mph N/A   Overcast
1:53 AM -0.4 °F -21.7 °F -5.8 °F 78% 29.92 in 7.0 mi NNW 18.4 mph 25.3 mph N/A   Overcast
2:13 AM -0.4 °F -20.5 °F -5.8 °F 78% 29.93 in 10.0 mi NW 16.1 mph 25.3 mph N/A   Overcast
2:33 AM -0.4 °F -22.3 °F -5.8 °F 78% 29.94 in 7.0 mi NNW 19.6 mph 27.6 mph N/A   Overcast
2:53 AM -0.4 °F -20.5 °F -5.8 °F 78% 29.94 in 7.0 mi NNW 16.1 mph 26.5 mph N/A   Overcast
3:13 AM -0.4 °F -20.5 °F -7.6 °F 72% 29.95 in 10.0 mi NW 16.1 mph 23.0 mph N/A   Overcast
3:33 AM -0.4 °F -19.9 °F -7.6 °F 72% 29.95 in 10.0 mi NNW 15.0 mph 20.7 mph N/A   Overcast
3:53 AM -0.4 °F -19.2 °F -7.6 °F 72% 29.96 in 10.0 mi NW 13.8 mph 20.7 mph N/A   Overcast
4:14 AM -0.4 °F -21.2 °F -7.6 °F 72% 29.96 in 10.0 mi NNW 17.3 mph - N/A   Overcast
4:33 AM -2.2 °F -20.7 °F -7.6 °F 78% 29.97 in 10.0 mi NW 12.7 mph 21.9 mph N/A   Overcast
4:53 AM -2.2 °F -20.7 °F -7.6 °F 78% 29.98 in 10.0 mi NW 12.7 mph - N/A   Overcast
5:14 AM -2.2 °F -20.7 °F -7.6 °F 78% 29.98 in 10.0 mi NNW 12.7 mph 18.4 mph N/A   Overcast
5:53 AM -2.2 °F -19.9 °F -7.6 °F 78% 30.00 in 10.0 mi NNW 11.5 mph - N/A   Overcast
6:33 AM -2.2 °F -21.5 °F -9.4 °F 71% 30.02 in 10.0 mi NNW 13.8 mph 20.7 mph N/A   Overcast
6:53 AM -2.2 °F -22.9 °F -9.4 °F 71% 30.03 in 10.0 mi NNW 16.1 mph 21.9 mph N/A   Overcast
7:13 AM -5.8 °F -27.5 °F -9.4 °F 84% 30.05 in 10.0 mi NW 16.1 mph - N/A   Overcast
7:33 AM -5.8 °F -26.8 °F -11.2 °F 77% 30.06 in 10.0 mi NW 15.0 mph 20.7 mph N/A   Overcast
7:53 AM -7.6 °F -28.3 °F -11.2 °F 84% 30.07 in 10.0 mi NW 13.8 mph - N/A   Scattered Clouds
8:13 AM -5.8 °F -27.5 °F -11.2 °F 77% 30.08 in 10.0 mi NW 16.1 mph - N/A   Clear
8:33 AM -5.8 °F -26.8 °F -11.2 °F 77% 30.09 in 10.0 mi NW 15.0 mph 19.6 mph N/A Snow Light Snow
8:53 AM -5.8 °F -26.8 °F -11.2 °F 77% 30.09 in 5.0 mi NW 15.0 mph - N/A Snow Light Snow
9:33 AM -5.8 °F -28.8 °F -11.2 °F 77% 30.10 in 5.0 mi NNW 18.4 mph - N/A   Haze
9:53 AM -5.8 °F -29.4 °F -11.2 °F 77% 30.11 in 5.0 mi NW 19.6 mph - N/A Snow Light Snow
10:13 AM -4.0 °F -26.4 °F -11.2 °F 71% 30.12 in 5.0 mi NW 18.4 mph 24.2 mph N/A Snow Light Snow
10:33 AM -4.0 °F -26.4 °F -11.2 °F 71% 30.13 in 3.0 mi NW 18.4 mph - N/A Snow Light Snow
10:53 AM -4.0 °F -27.0 °F -11.2 °F 71% 30.13 in 5.0 mi NW 19.6 mph - N/A   Haze
11:13 AM -4.0 °F -27.0 °F -11.2 °F 71% 30.14 in 7.0 mi NW 19.6 mph - N/A   Clear
11:33 AM -2.2 °F -23.5 °F -11.2 °F 66% 30.14 in 7.0 mi NW 17.3 mph - N/A   Clear
11:53 AM -2.2 °F -24.7 °F -11.2 °F 66% 30.15 in 10.0 mi NW 19.6 mph 23.0 mph N/A   Clear
12:13 PM -2.2 °F -22.9 °F -11.2 °F 66% 30.15 in 10.0 mi NW 16.1 mph - N/A   Clear
12:33 PM -0.4 °F -23.3 °F -11.2 °F 60% 30.15 in 7.0 mi NW 21.9 mph - N/A   Clear
12:54 PM -0.4 °F -22.3 °F -9.4 °F 66% 30.16 in 10.0 mi NW 19.6 mph - N/A   Clear
1:13 PM 1.4 °F -17.6 °F -9.4 °F 61% 30.16 in 10.0 mi NW 15.0 mph - N/A   Clear
1:33 PM 1.4 °F -19.9 °F -9.4 °F 61% 30.16 in 10.0 mi NW 19.6 mph 23.0 mph N/A   Clear
1:54 PM 1.4 °F -18.8 °F -9.4 °F 61% 30.17 in 7.0 mi NW 17.3 mph 21.9 mph N/A   Clear
2:13 PM 1.4 °F -18.8 °F -9.4 °F 61% 30.17 in 10.0 mi NW 17.3 mph - N/A   Clear
2:33 PM 1.4 °F -17.6 °F -9.4 °F 61% 30.18 in 10.0 mi NNW 15.0 mph 23.0 mph N/A   Clear
2:54 PM 3.2 °F -15.9 °F -9.4 °F 56% 30.19 in 10.0 mi NW 16.1 mph 19.6 mph N/A   Clear
3:13 PM 3.2 °F -15.3 °F -9.4 °F 56% 30.20 in 10.0 mi NNW 15.0 mph - N/A   Clear
3:33 PM 3.2 °F -15.3 °F -9.4 °F 56% 30.21 in 10.0 mi NNW 15.0 mph 19.6 mph N/A   Clear
3:54 PM 3.2 °F -14.6 °F -9.4 °F 56% 30.22 in 10.0 mi NW 13.8 mph - N/A   Clear
4:13 PM 3.2 °F -13.9 °F -9.4 °F 56% 30.22 in 10.0 mi NNW 12.7 mph - N/A   Clear
4:33 PM 3.2 °F -13.9 °F -9.4 °F 56% 30.23 in 10.0 mi NNW 12.7 mph 18.4 mph N/A   Clear
4:54 PM 3.2 °F -13.9 °F -9.4 °F 56% 30.24 in 10.0 mi NW 12.7 mph 18.4 mph N/A   Clear
5:13 PM 1.4 °F -14.5 °F -9.4 °F 61% 30.25 in 10.0 mi NNW 10.4 mph - N/A   Clear
5:33 PM 1.4 °F -16.9 °F -9.4 °F 61% 30.25 in 10.0 mi NNW 13.8 mph - N/A   Clear
6:33 PM -2.2 °F -16.8 °F -11.2 °F 66% 30.28 in 10.0 mi NW 8.1 mph - N/A   Clear
6:54 PM -2.2 °F -18.0 °F -11.2 °F 66% 30.29 in 10.0 mi NW 9.2 mph - N/A   Clear
7:13 PM -4.0 °F -20.2 °F -11.2 °F 71% 30.30 in 10.0 mi NW 9.2 mph - N/A   Clear
7:54 PM -4.0 °F -21.2 °F -11.2 °F 71% 30.32 in 10.0 mi NW 10.4 mph - N/A   Clear
8:13 PM -5.8 °F -23.4 °F -13.0 °F 71% 30.32 in 10.0 mi NNW 10.4 mph - N/A   Clear
8:33 PM -5.8 °F -22.4 °F -13.0 °F 71% 30.33 in 10.0 mi NNW 9.2 mph - N/A   Clear
8:54 PM -5.8 °F -21.2 °F -13.0 °F 71% 30.33 in 10.0 mi NNW 8.1 mph - N/A   Clear
9:13 PM -7.6 °F -23.4 °F -14.8 °F 71% 30.33 in 10.0 mi North 8.1 mph - N/A   Clear
9:33 PM -5.8 °F -21.2 °F -13.0 °F 71% 30.33 in 10.0 mi North 8.1 mph - N/A   Clear
9:54 PM -9.4 °F -22.7 °F -14.8 °F 77% 30.34 in 10.0 mi NNW 5.8 mph - N/A   Clear
10:13 PM -9.4 °F -22.7 °F -16.6 °F 71% 30.35 in 10.0 mi NW 5.8 mph - N/A   Clear
10:33 PM -9.4 °F -18.6 °F -14.8 °F 77% 30.34 in 10.0 mi NNW 3.5 mph - N/A   Clear
10:54 PM -11.2 °F -24.8 °F -16.6 °F 77% 30.35 in 10.0 mi NW 5.8 mph - N/A   Clear
11:13 PM -11.2 °F -23.0 °F -16.6 °F 77% 30.35 in 10.0 mi NNW 4.6 mph - N/A   Clear
11:33 PM -14.8 °F -30.8 °F -18.4 °F 84% 30.35 in 10.0 mi NW 6.9 mph - N/A   Clear
11:54 PM -14.8 °F -32.2 °F -18.4 °F 84% 30.36 in 10.0 mi NW 8.1 mph - N/A   Clear